2021-097B (49339 NORAD) Tracking and Keplerian Element Data

This shows tracking and keplerian element data for the satellite.

Feedback or suggestion? Click here.




ElementValue
Catalog49339
Name2021-097B
Epoch Orbit46
Epoch Day303.25987395
Epoch Year2021
RAAN49.173
Inclination97.5874
Eccentricity0.0099923
Argument of Perigee71.7833
Mean Anonmoly347.1537
Mean Motion16.35972074
Decay Rate0.2738701
L11 49339U 21097B 21303.25987395 .27387010 31010-5 28375-3 0 9990
L22 49339 97.5874 49.1730 0099923 71.7833 347.1537 16.35972074 469

Live tracking and technical data element details for 2021-097B (NORAD 49339). 2021-097B can be tracked NOW for your location showing map with azimuth and elevation plus other details from your city location.

Track the satellite on the map from your city or location and see movement details for azimuth, elevation, latitude, longitude, range, height, and movement on the map or in text.







IsCatalogInMostPopularTable: catalog: 49339, numindb: 7
Update: records affected: 1



GetName: 49339 2021-097B

Hit Count: updated at: Mon, 06 Dec 2021 14:20:25 GMT